Kodiak, AK

5:16 PM AKST on February 06, 2016 (GMT -0900)
Kodiak

Weather History for PADQ - October, 2014

Change the Weather History Date:

Sunday, October 12, 2014

  Actual Average Record
Temperature  
Mean Temperature 37 °F 41 °F  
Max Temperature 43 °F 48 °F 60 °F (1993)
Min Temperature 30 °F 35 °F 23 °F (1924)
Degree Days  
Heating Degree Days 28 24  
Month to date heating degree days 291 264  
Since 1 July heating degree days 1162 1362  
Cooling Degree Days 0    
Month to date cooling degree days 0  
Year to date cooling degree days 4  
Moisture  
Dew Point 32 °F    
Average Humidity 0    
Maximum Humidity 0    
Minimum Humidity 0    
Precipitation  
Precipitation 1.06 in 0.27 in 3.63 in (1942)
Month to date precipitation 4.46 3.34  
Year to date precipitation 61.21 57.48  
Snow  
Snow 0.20 in 0.00 in 5.50 in (1961)
Month to date snowfall 0.2 0.1  
Since 1 September snowfall 0.2 0.1  
Snow Depth 0.00 in    
Sea Level Pressure  
Sea Level Pressure 29.33 in    
Wind  
Wind Speed 16 mph (WNW)    
Max Wind Speed 32 mph    
Max Gust Speed 47 mph    
Visibility 6 miles    
Events Rain , Snow    
T = Trace of Precipitation, MM = Missing Value Source: NWS Daily Summary

Daily Weather History Graph

Daily Weather History Graph

Search for Another Location

Airport or City:

Trip Planner

Search our weather history database for the weather conditions in past years. The results will help you decide how hot, cold, wet, or windy it might be!

Date:

Astronomy

Oct. 12, 2014 Rise Set
Actual Time 8:38 AM AKDT 7:13 PM AKDT
Civil Twilight 7:59 AM AKDT 7:52 PM AKDT
Nautical Twilight 7:14 AM AKDT 8:37 PM AKDT
Astronomical Twilight 6:28 AM AKDT 9:22 PM AKDT
Moon 9:56 PM AKDT (10/12) 1:53 PM AKDT (10/12)
Length of Visible Light 11h 53m
Length of Day
10h 34m
Waning Gibbous, 78% of the Moon is Illuminated
Oct 12
Waning Gibbous
Oct 15
Last Quarter
Oct 23
New
Oct 30
First Quarter
Nov 6
Full

Hourly Weather History & Observations

Time (AKDT) Temp. Windchill Dew Point Humidity Pressure Visibility Wind Dir Wind Speed Gust Speed Precip Events Conditions
12:53 AM 32.0 °F 27.5 °F 28.9 °F 88% 29.48 in 10.0 mi West 4.6 mph - N/A   Mostly Cloudy
1:53 AM 30.9 °F 25.2 °F 28.9 °F 92% 29.49 in 10.0 mi West 5.8 mph - N/A   Mostly Cloudy
2:53 AM 30.9 °F 24.3 °F 28.9 °F 92% 29.50 in 10.0 mi West 6.9 mph - N/A   Mostly Cloudy
3:53 AM 32.0 °F 25.6 °F 28.0 °F 85% 29.50 in 10.0 mi West 6.9 mph - N/A   Mostly Cloudy
4:53 AM 32.0 °F 24.8 °F 28.0 °F 85% 29.49 in 10.0 mi West 8.1 mph - N/A   Mostly Cloudy
5:53 AM 32.0 °F 25.6 °F 27.0 °F 82% 29.49 in 10.0 mi West 6.9 mph - N/A   Mostly Cloudy
6:53 AM 33.1 °F 27.7 °F 27.0 °F 78% 29.49 in 10.0 mi West 5.8 mph - N/A   Mostly Cloudy
7:53 AM 37.0 °F 30.4 °F 26.1 °F 65% 29.49 in 10.0 mi WNW 9.2 mph - N/A   Mostly Cloudy
8:53 AM 37.9 °F 29.6 °F 26.1 °F 62% 29.48 in 10.0 mi WNW 13.8 mph - N/A   Overcast
9:53 AM 37.9 °F 30.5 °F 27.0 °F 65% 29.48 in 10.0 mi WNW 11.5 mph - N/A   Overcast
10:53 AM 39.0 °F 31.4 °F 28.0 °F 65% 29.47 in 10.0 mi WNW 12.7 mph - N/A   Overcast
11:53 AM 39.9 °F 32.1 °F 28.9 °F 65% 29.45 in 10.0 mi WNW 13.8 mph - N/A   Overcast
12:53 PM 39.0 °F 31.0 °F 34.0 °F 82% 29.43 in 9.0 mi NW 13.8 mph - 0.00 in Rain Light Rain
1:53 PM 37.9 °F 28.5 °F 35.1 °F 89% 29.37 in 7.0 mi WNW 17.3 mph 24.2 mph 0.02 in Rain Light Rain
2:53 PM 37.0 °F 27.4 °F 35.1 °F 93% 29.34 in 4.0 mi WNW 17.3 mph 32.2 mph 0.03 in Rain Rain
3:25 PM 36.0 °F 25.6 °F 35.1 °F 97% 29.31 in 3.0 mi WNW 18.4 mph 27.6 mph 0.05 in Rain , Snow Rain
3:53 PM 35.1 °F 23.5 °F 34.0 °F 96% 29.29 in 3.0 mi WNW 21.9 mph 29.9 mph 0.07 in Rain , Snow Light Rain
4:14 PM 34.0 °F 22.4 °F 33.1 °F 96% 29.27 in 2.0 mi WNW 20.7 mph 27.6 mph 0.04 in Rain , Snow Light Rain
4:28 PM 34.0 °F 21.8 °F 33.1 °F 96% 29.26 in 1.0 mi WNW 23.0 mph 33.4 mph 0.06 in Rain , Snow Light Rain
4:53 PM 34.0 °F 21.8 °F 33.1 °F 96% 29.23 in 1.0 mi WNW 23.0 mph 43.7 mph 0.11 in Rain , Snow Light Rain
5:53 PM 34.0 °F 20.5 °F 34.0 °F 100% 29.18 in 1.0 mi NW 28.8 mph 39.1 mph 0.09 in Rain , Snow Light Rain
6:53 PM 34.0 °F 21.8 °F 33.1 °F 96% 29.16 in 1.0 mi NW 23.0 mph 42.6 mph 0.12 in Rain , Snow Light Rain
7:53 PM 34.0 °F 21.5 °F 34.0 °F 100% 29.14 in 1.0 mi WNW 24.2 mph 38.0 mph 0.16 in Rain , Snow Light Rain
8:53 PM 36.0 °F 23.2 °F 34.0 °F 93% 29.13 in 1.0 mi NW 28.8 mph 44.9 mph 0.10 in Rain , Snow Light Rain
9:00 PM 36.0 °F 24.7 °F 34.0 °F 93% 29.12 in 3.0 mi NW 21.9 mph 44.9 mph N/A Rain , Snow Light Rain
9:53 PM 37.9 °F 26.8 °F 36.0 °F 93% 29.13 in 2.5 mi WNW 24.2 mph 38.0 mph 0.08 in Rain Light Rain
10:06 PM 37.9 °F 27.6 °F 36.0 °F 93% 29.12 in 3.0 mi NW 20.7 mph 33.4 mph 0.01 in Rain Light Rain
10:30 PM 39.0 °F 28.5 °F 37.0 °F 93% 29.13 in 5.0 mi NW 23.0 mph 34.5 mph 0.03 in Rain Rain
10:53 PM 39.0 °F 29.0 °F 37.0 °F 93% 29.11 in 4.0 mi NW 20.7 mph 35.7 mph 0.08 in Rain Rain
11:53 PM 41.0 °F 31.4 °F 39.0 °F 93% 29.13 in 4.0 mi WNW 21.9 mph 36.8 mph 0.12 in Rain Rain